Regional Weather Roundup
Issued by NWS

Home | Current Version | Previous Version | Graphics & Text | Print | Product List | Glossary On
Versions: 1 2 3 4 5 6 7 8 9 10 11 12 13 14 15 16 17 18 19 20 21 22 23 24 25 26 27 28 29 30 31 32 33 34 35 36 37 38 39 40 41 42 43 44 45 46 47 48 49 50
000
ASUS45 KCYS 270410
RWRWY

WYOMING REGIONAL WEATHER ROUNDUP
NATIONAL WEATHER SERVICE CHEYENNE WY
1000 PM MDT THU MAY 26 2016

NOTE:  "FAIR" INDICATES FEW OR NO CLOUDS BELOW 12,000 FEET
WITH NO SIGNIFICANT WEATHER AND/OR OBSTRUCTIONS TO VISIBILITY.

WYZ001-270500-
YELLOWSTONE NATIONAL PARK

CITY           SKY/WX    TMP DP  RH WIND       PRES   REMARKS
LK YELLOWSTONE   N/A     35  33  92 E3        30.12S
W YELLOWSTONE  NOT AVBL

$$
WYZ002>013-054>058-071-098>099-270500-
NORTHERN WYOMING

CITY           SKY/WX    TMP DP  RH WIND       PRES   REMARKS
JACKSON        FAIR      45  36  70 NE3       30.02R
CODY           FAIR      52  37  58 W6        29.97S
GREYBULL       FAIR      55  45  68 NW5       29.93R
WORLAND        FAIR      49  43  80 SW3       29.95R
SHERIDAN       FAIR      50  45  83 W6        29.93R
BUFFALO        CLOUDY    51  44  77 SW3       29.97R
GILLETTE       FAIR      43  38  82 W8        29.93R
HULETT         MOCLDY    54  43  66 CALM      29.94R
NEWCASTLE      FAIR      54  32  43 N9        29.91R

$$
WYZ014>020-022>026-101>103-270500-
CENTRAL WYOMING

CITY           SKY/WX    TMP DP  RH WIND       PRES   REMARKS
BIG PINEY      FAIR      46  35  65 N9        30.02R
PINEDALE       FAIR      43  36  75 NW8       30.03R
DUBOIS         FAIR      41  32  70 W3        30.04R
LANDER         MOCLDY    50  40  68 SE9       29.97R
RIVERTON       MOCLDY    52  39  61 NE5       30.00R
CASPER         FAIR      43  37  79 NW10      29.94S
DOUGLAS          N/A    N/A N/A N/A MISG      29.93S

$$
WYZ021-027>030-104>119-270500-
SOUTHERN WYOMING

CITY           SKY/WX    TMP DP  RH WIND       PRES   REMARKS
EVANSTON       CLOUDY    46  34  62 NW10      30.05R
KEMMERER         N/A     43  34  70 NW9       30.04R
FORT BRIDGER   CLOUDY    46  39  76 W10       30.06R
ROCK SPRINGS   CLOUDY    51  32  48 NW6       29.99R
DIXON          CLOUDY    52  35  53 W8        29.99R
RAWLINS        FAIR      45  36  70 N9        29.98R
SARATOGA       FAIR      41  32  70 W9        29.98S
LARAMIE        FAIR      41  34  76 NW5       29.98R
CHEYENNE       FAIR      48  39  71 N8        29.94R
TORRINGTON     FAIR      52  43  71 NW8       29.87R
PINE BLUFFS    FAIR      45  45 100 NW5       29.91R

$$



USA.gov is the U.S. government's official web portal to all federal, state and local government web resources and services.